Simultaneous Nadir Overpasses (SNOs) Predictions

Prediction of SNOs between GOES-17 and NOAA-20 Satellite Orbit:

Table of predicted SNOs for the next 14.0 days since TLE Epoch: 6/8/2024
Index Date Time (GOES-17) GOES-17 Lat,Lon NOAA-20 Lat,Lon Distance(km) Time Diff (sec)
1 06/08/2024 08:33:03 -0.02,-104.71 0.42,-106.66 222.84 80
2 06/09/2024 08:14:15 -0.01,-104.71 -0.58,-102.12 294.68 80
3 06/10/2024 20:33:27 -0.01,-104.71 -0.59,-107.41 307.86 80
4 06/11/2024 20:17:20 -0.01,-104.71 0.42,-102.87 209.90 80
5 06/13/2024 08:36:23 0.02,-104.71 0.78,-108.12 389.05 80
6 06/14/2024 08:20:16 0.02,-104.71 -0.23,-103.58 128.74 80
7 06/15/2024 20:39:28 -0.02,-104.72 -0.93,-108.88 473.68 80
8 06/16/2024 20:23:21 -0.02,-104.72 0.08,-104.34 44.16 80
9 06/19/2024 08:23:37 0.01,-104.72 0.09,-105.05 37.45 80
10 06/20/2024 08:07:29 0.01,-104.72 -0.93,-100.51 479.90 80
11 06/21/2024 20:26:40 -0.00,-104.72 -0.27,-105.79 123.41 80
